Location: Dos Palmas
(32.4468°N, 116.8732°W)
Time: 00:33:03
(UTC+00:00)

SL-16 R/B - Pass Details

Date: 20 June 2021
Orbit: 985 x 1007 km, 99.5° (Epoch: 01 August)

Event Time Altitude Azimuth Distance (km) Brightness Sun altitude
Exits shadow 09:45:16 67° 167° (SSE) 1,070 2.4 -27.6°
Maximum altitude 09:46:12 89° 255° (WSW) 998 2.4 -27.5°
Drops below altitude 10° 09:52:25 10° 346° (NNW) 2,755 5.4 -26.8°
Sets 09:54:53 0° 347° (NNW) 3,704 6.2 -26.6°
